Date_Time,Julian_Date,Latitude,Longitude,Instrument_Depth,Water_Temperature
(yyyy-mm-dd hh:mn:ss UTC),(JD),(+ deg. North),(+ deg. East),(m),(deg. C)
1987-07-16 06:45:00 UTC,2446992.781250,28.6750,-92.0983,0032,24.7600
1987-07-16 07:15:00 UTC,2446992.802083,28.6750,-92.0983,0032,24.6800
1987-07-16 07:45:00 UTC,2446992.822917,28.6750,-92.0983,0032,24.5300
1987-07-16 08:15:00 UTC,2446992.843750,28.6750,-92.0983,0032,24.3900
1987-07-16 08:45:00 UTC,2446992.864583,28.6750,-92.0983,0032,24.2900
1987-07-16 09:15:00 UTC,2446992.885417,28.6750,-92.0983,0032,24.2000
1987-07-16 09:45:00 UTC,2446992.906250,28.6750,-92.0983,0032,24.0900
1987-07-16 10:15:00 UTC,2446992.927083,28.6750,-92.0983,0032,23.9300
1987-07-16 10:45:00 UTC,2446992.947917,28.6750,-92.0983,0032,23.7900
1987-07-16 11:15:00 UTC,2446992.968750,28.6750,-92.0983,0032,23.6200
1987-07-16 11:45:00 UTC,2446992.989583,28.6750,-92.0983,0032,23.2900
1987-07-16 12:15:00 UTC,2446993.010417,28.6750,-92.0983,0032,23.3500
1987-07-16 12:45:00 UTC,2446993.031250,28.6750,-92.0983,0032,22.8900
1987-07-16 13:15:00 UTC,2446993.052083,28.6750,-92.0983,0032,22.4200
1987-07-16 13:45:00 UTC,2446993.072917,28.6750,-92.0983,0032,22.2900
1987-07-16 14:15:00 UTC,2446993.093750,28.6750,-92.0983,0032,22.3400
1987-07-16 14:45:00 UTC,2446993.114583,28.6750,-92.0983,0032,22.6000
1987-07-16 15:15:00 UTC,2446993.135417,28.6750,-92.0983,0032,23.1400
1987-07-16 15:45:00 UTC,2446993.156250,28.6750,-92.0983,0032,23.7500
1987-07-16 16:15:00 UTC,2446993.177083,28.6750,-92.0983,0032,23.7000
1987-07-16 16:45:00 UTC,2446993.197917,28.6750,-92.0983,0032,23.9300
1987-07-16 17:15:00 UTC,2446993.218750,28.6750,-92.0983,0032,24.1400
1987-07-16 17:45:00 UTC,2446993.239583,28.6750,-92.0983,0032,24.5900
1987-07-16 18:15:00 UTC,2446993.260417,28.6750,-92.0983,0032,24.8500
1987-07-16 18:45:00 UTC,2446993.281250,28.6750,-92.0983,0032,24.8900
1987-07-16 19:15:00 UTC,2446993.302083,28.6750,-92.0983,0032,24.7000
1987-07-16 19:45:00 UTC,2446993.322917,28.6750,-92.0983,0032,24.3900
1987-07-16 20:15:00 UTC,2446993.343750,28.6750,-92.0983,0032,24.3200
1987-07-16 20:45:00 UTC,2446993.364583,28.6750,-92.0983,0032,24.5900
1987-07-16 21:15:00 UTC,2446993.385417,28.6750,-92.0983,0032,24.6800
1987-07-16 21:45:00 UTC,2446993.406250,28.6750,-92.0983,0032,24.7800
1987-07-16 22:15:00 UTC,2446993.427083,28.6750,-92.0983,0032,24.7800
1987-07-16 22:45:00 UTC,2446993.447917,28.6750,-92.0983,0032,24.7600
1987-07-16 23:15:00 UTC,2446993.468750,28.6750,-92.0983,0032,24.5400
1987-07-16 23:45:00 UTC,2446993.489583,28.6750,-92.0983,0032,24.4600
1987-07-17 00:15:00 UTC,2446993.510417,28.6750,-92.0983,0032,24.5600
1987-07-17 00:45:00 UTC,2446993.531250,28.6750,-92.0983,0032,24.4800
1987-07-17 01:15:00 UTC,2446993.552083,28.6750,-92.0983,0032,24.2800
1987-07-17 01:45:00 UTC,2446993.572917,28.6750,-92.0983,0032,24.1200
1987-07-17 02:15:00 UTC,2446993.593750,28.6750,-92.0983,0032,23.9600
1987-07-17 02:45:00 UTC,2446993.614583,28.6750,-92.0983,0032,23.8900
1987-07-17 03:15:00 UTC,2446993.635417,28.6750,-92.0983,0032,23.7800
1987-07-17 03:45:00 UTC,2446993.656250,28.6750,-92.0983,0032,23.7800
1987-07-17 04:15:00 UTC,2446993.677083,28.6750,-92.0983,0032,23.7600
1987-07-17 04:45:00 UTC,2446993.697917,28.6750,-92.0983,0032,23.7500
1987-07-17 05:15:00 UTC,2446993.718750,28.6750,-92.0983,0032,23.6800
1987-07-17 05:45:00 UTC,2446993.739583,28.6750,-92.0983,0032,23.6000
1987-07-17 06:15:00 UTC,2446993.760417,28.6750,-92.0983,0032,23.4800
1987-07-17 06:45:00 UTC,2446993.781250,28.6750,-92.0983,0032,23.3400
1987-07-17 07:15:00 UTC,2446993.802083,28.6750,-92.0983,0032,23.1800
1987-07-17 07:45:00 UTC,2446993.822917,28.6750,-92.0983,0032,23.2900
1987-07-17 08:15:00 UTC,2446993.843750,28.6750,-92.0983,0032,23.1500
1987-07-17 08:45:00 UTC,2446993.864583,28.6750,-92.0983,0032,22.9000
1987-07-17 09:15:00 UTC,2446993.885417,28.6750,-92.0983,0032,22.9300
1987-07-17 09:45:00 UTC,2446993.906250,28.6750,-92.0983,0032,22.9000
1987-07-17 10:15:00 UTC,2446993.927083,28.6750,-92.0983,0032,23.2000
1987-07-17 10:45:00 UTC,2446993.947917,28.6750,-92.0983,0032,23.4800
1987-07-17 11:15:00 UTC,2446993.968750,28.6750,-92.0983,0032,23.8400
1987-07-17 11:45:00 UTC,2446993.989583,28.6750,-92.0983,0032,24.0000
1987-07-17 12:15:00 UTC,2446994.010417,28.6750,-92.0983,0032,24.0700
1987-07-17 12:45:00 UTC,2446994.031250,28.6750,-92.0983,0032,24.2300
1987-07-17 13:15:00 UTC,2446994.052083,28.6750,-92.0983,0032,24.2800
1987-07-17 13:45:00 UTC,2446994.072917,28.6750,-92.0983,0032,24.2600
1987-07-17 14:15:00 UTC,2446994.093750,28.6750,-92.0983,0032,24.2800
1987-07-17 14:45:00 UTC,2446994.114583,28.6750,-92.0983,0032,24.4300
1987-07-17 15:15:00 UTC,2446994.135417,28.6750,-92.0983,0032,24.4000
1987-07-17 15:45:00 UTC,2446994.156250,28.6750,-92.0983,0032,24.3900
1987-07-17 16:15:00 UTC,2446994.177083,28.6750,-92.0983,0032,24.5400
1987-07-17 16:45:00 UTC,2446994.197917,28.6750,-92.0983,0032,24.4600
1987-07-17 17:15:00 UTC,2446994.218750,28.6750,-92.0983,0032,24.6200
1987-07-17 17:45:00 UTC,2446994.239583,28.6750,-92.0983,0032,24.6200
1987-07-17 18:15:00 UTC,2446994.260417,28.6750,-92.0983,0032,24.9000
1987-07-17 18:45:00 UTC,2446994.281250,28.6750,-92.0983,0032,25.1500
1987-07-17 19:15:00 UTC,2446994.302083,28.6750,-92.0983,0032,25.3500
1987-07-17 19:45:00 UTC,2446994.322917,28.6750,-92.0983,0032,25.4200
1987-07-17 20:15:00 UTC,2446994.343750,28.6750,-92.0983,0032,25.3400
1987-07-17 20:45:00 UTC,2446994.364583,28.6750,-92.0983,0032,25.0900
1987-07-17 21:15:00 UTC,2446994.385417,28.6750,-92.0983,0032,25.1400
1987-07-17 21:45:00 UTC,2446994.406250,28.6750,-92.0983,0032,25.0300
1987-07-17 22:15:00 UTC,2446994.427083,28.6750,-92.0983,0032,24.9000
1987-07-17 22:45:00 UTC,2446994.447917,28.6750,-92.0983,0032,24.8700
1987-07-17 23:15:00 UTC,2446994.468750,28.6750,-92.0983,0032,24.7900
1987-07-17 23:45:00 UTC,2446994.489583,28.6750,-92.0983,0032,24.6200
1987-07-18 00:15:00 UTC,2446994.510417,28.6750,-92.0983,0032,24.7500
1987-07-18 00:45:00 UTC,2446994.531250,28.6750,-92.0983,0032,24.5600
1987-07-18 01:15:00 UTC,2446994.552083,28.6750,-92.0983,0032,24.1800
1987-07-18 01:45:00 UTC,2446994.572917,28.6750,-92.0983,0032,24.0000
1987-07-18 02:15:00 UTC,2446994.593750,28.6750,-92.0983,0032,23.8700
1987-07-18 02:45:00 UTC,2446994.614583,28.6750,-92.0983,0032,23.8500
1987-07-18 03:15:00 UTC,2446994.635417,28.6750,-92.0983,0032,23.9500
1987-07-18 03:45:00 UTC,2446994.656250,28.6750,-92.0983,0032,23.8500
1987-07-18 04:15:00 UTC,2446994.677083,28.6750,-92.0983,0032,23.8100
1987-07-18 04:45:00 UTC,2446994.697917,28.6750,-92.0983,0032,23.7000
1987-07-18 05:15:00 UTC,2446994.718750,28.6750,-92.0983,0032,23.7000
1987-07-18 05:45:00 UTC,2446994.739583,28.6750,-92.0983,0032,23.5700
1987-07-18 06:15:00 UTC,2446994.760417,28.6750,-92.0983,0032,23.5100
1987-07-18 06:45:00 UTC,2446994.781250,28.6750,-92.0983,0032,23.4600
1987-07-18 07:15:00 UTC,2446994.802083,28.6750,-92.0983,0032,23.4500
1987-07-18 07:45:00 UTC,2446994.822917,28.6750,-92.0983,0032,23.4800
1987-07-18 08:15:00 UTC,2446994.843750,28.6750,-92.0983,0032,23.4300
1987-07-18 08:45:00 UTC,2446994.864583,28.6750,-92.0983,0032,23.4300
1987-07-18 09:15:00 UTC,2446994.885417,28.6750,-92.0983,0032,23.5100
1987-07-18 09:45:00 UTC,2446994.906250,28.6750,-92.0983,0032,23.7300
1987-07-18 10:15:00 UTC,2446994.927083,28.6750,-92.0983,0032,23.8200
1987-07-18 10:45:00 UTC,2446994.947917,28.6750,-92.0983,0032,23.6200
1987-07-18 11:15:00 UTC,2446994.968750,28.6750,-92.0983,0032,23.5900
1987-07-18 11:45:00 UTC,2446994.989583,28.6750,-92.0983,0032,23.6400
1987-07-18 12:15:00 UTC,2446995.010417,28.6750,-92.0983,0032,23.7000
1987-07-18 12:45:00 UTC,2446995.031250,28.6750,-92.0983,0032,23.8200
1987-07-18 13:15:00 UTC,2446995.052083,28.6750,-92.0983,0032,24.0900
1987-07-18 13:45:00 UTC,2446995.072917,28.6750,-92.0983,0032,24.3100
1987-07-18 14:15:00 UTC,2446995.093750,28.6750,-92.0983,0032,24.5300
1987-07-18 14:45:00 UTC,2446995.114583,28.6750,-92.0983,0032,24.6000
1987-07-18 15:15:00 UTC,2446995.135417,28.6750,-92.0983,0032,24.7600
1987-07-18 15:45:00 UTC,2446995.156250,28.6750,-92.0983,0032,24.8100
1987-07-18 16:15:00 UTC,2446995.177083,28.6750,-92.0983,0032,25.0100
1987-07-18 16:45:00 UTC,2446995.197917,28.6750,-92.0983,0032,25.0900
1987-07-18 17:15:00 UTC,2446995.218750,28.6750,-92.0983,0032,25.2300
1987-07-18 17:45:00 UTC,2446995.239583,28.6750,-92.0983,0032,25.3400
1987-07-18 18:15:00 UTC,2446995.260417,28.6750,-92.0983,0032,25.4500
1987-07-18 18:45:00 UTC,2446995.281250,28.6750,-92.0983,0032,25.3900
1987-07-18 19:15:00 UTC,2446995.302083,28.6750,-92.0983,0032,25.1500
1987-07-18 19:45:00 UTC,2446995.322917,28.6750,-92.0983,0032,25.0300
1987-07-18 20:15:00 UTC,2446995.343750,28.6750,-92.0983,0032,24.8500
1987-07-18 20:45:00 UTC,2446995.364583,28.6750,-92.0983,0032,24.9200
1987-07-18 21:15:00 UTC,2446995.385417,28.6750,-92.0983,0032,25.0100
1987-07-18 21:45:00 UTC,2446995.406250,28.6750,-92.0983,0032,25.0900
1987-07-18 22:15:00 UTC,2446995.427083,28.6750,-92.0983,0032,24.5900
1987-07-18 22:45:00 UTC,2446995.447917,28.6750,-92.0983,0032,24.7500
1987-07-18 23:15:00 UTC,2446995.468750,28.6750,-92.0983,0032,24.6200
1987-07-18 23:45:00 UTC,2446995.489583,28.6750,-92.0983,0032,24.8700
1987-07-19 00:15:00 UTC,2446995.510417,28.6750,-92.0983,0032,24.9000
1987-07-19 00:45:00 UTC,2446995.531250,28.6750,-92.0983,0032,24.6800
1987-07-19 01:15:00 UTC,2446995.552083,28.6750,-92.0983,0032,24.3500
1987-07-19 01:45:00 UTC,2446995.572917,28.6750,-92.0983,0032,24.5300
1987-07-19 02:15:00 UTC,2446995.593750,28.6750,-92.0983,0032,24.4200
1987-07-19 02:45:00 UTC,2446995.614583,28.6750,-92.0983,0032,24.5600
1987-07-19 03:15:00 UTC,2446995.635417,28.6750,-92.0983,0032,24.6200
1987-07-19 03:45:00 UTC,2446995.656250,28.6750,-92.0983,0032,24.2800
1987-07-19 04:15:00 UTC,2446995.677083,28.6750,-92.0983,0032,24.0400
1987-07-19 04:45:00 UTC,2446995.697917,28.6750,-92.0983,0032,23.9200
1987-07-19 05:15:00 UTC,2446995.718750,28.6750,-92.0983,0032,23.8500
1987-07-19 05:45:00 UTC,2446995.739583,28.6750,-92.0983,0032,23.6700
1987-07-19 06:15:00 UTC,2446995.760417,28.6750,-92.0983,0032,23.6200
1987-07-19 06:45:00 UTC,2446995.781250,28.6750,-92.0983,0032,23.6000
1987-07-19 07:15:00 UTC,2446995.802083,28.6750,-92.0983,0032,23.7000
1987-07-19 07:45:00 UTC,2446995.822917,28.6750,-92.0983,0032,23.6200
1987-07-19 08:15:00 UTC,2446995.843750,28.6750,-92.0983,0032,23.5600
1987-07-19 08:45:00 UTC,2446995.864583,28.6750,-92.0983,0032,23.5700
1987-07-19 09:15:00 UTC,2446995.885417,28.6750,-92.0983,0032,23.5900
1987-07-19 09:45:00 UTC,2446995.906250,28.6750,-92.0983,0032,23.6200
1987-07-19 10:15:00 UTC,2446995.927083,28.6750,-92.0983,0032,23.8100
1987-07-19 10:45:00 UTC,2446995.947917,28.6750,-92.0983,0032,23.8700
1987-07-19 11:15:00 UTC,2446995.968750,28.6750,-92.0983,0032,24.1500
1987-07-19 11:45:00 UTC,2446995.989583,28.6750,-92.0983,0032,24.2800
1987-07-19 12:15:00 UTC,2446996.010417,28.6750,-92.0983,0032,24.3900
1987-07-19 12:45:00 UTC,2446996.031250,28.6750,-92.0983,0032,24.9000
1987-07-19 13:15:00 UTC,2446996.052083,28.6750,-92.0983,0032,25.0300
1987-07-19 13:45:00 UTC,2446996.072917,28.6750,-92.0983,0032,25.2500
1987-07-19 14:15:00 UTC,2446996.093750,28.6750,-92.0983,0032,25.2800
1987-07-19 14:45:00 UTC,2446996.114583,28.6750,-92.0983,0032,25.3200
1987-07-19 15:15:00 UTC,2446996.135417,28.6750,-92.0983,0032,25.2000
1987-07-19 15:45:00 UTC,2446996.156250,28.6750,-92.0983,0032,25.2500
1987-07-19 16:15:00 UTC,2446996.177083,28.6750,-92.0983,0032,25.4500
1987-07-19 16:45:00 UTC,2446996.197917,28.6750,-92.0983,0032,25.5400
1987-07-19 17:15:00 UTC,2446996.218750,28.6750,-92.0983,0032,25.3200
1987-07-19 17:45:00 UTC,2446996.239583,28.6750,-92.0983,0032,25.1200
1987-07-19 18:15:00 UTC,2446996.260417,28.6750,-92.0983,0032,25.0000
1987-07-19 18:45:00 UTC,2446996.281250,28.6750,-92.0983,0032,24.9300
1987-07-19 19:15:00 UTC,2446996.302083,28.6750,-92.0983,0032,24.8200
1987-07-19 19:45:00 UTC,2446996.322917,28.6750,-92.0983,0032,24.7800
1987-07-19 20:15:00 UTC,2446996.343750,28.6750,-92.0983,0032,24.7000
1987-07-19 20:45:00 UTC,2446996.364583,28.6750,-92.0983,0032,24.4500
1987-07-19 21:15:00 UTC,2446996.385417,28.6750,-92.0983,0032,24.5300
1987-07-19 21:45:00 UTC,2446996.406250,28.6750,-92.0983,0032,24.5100
1987-07-19 22:15:00 UTC,2446996.427083,28.6750,-92.0983,0032,24.6000
1987-07-19 22:45:00 UTC,2446996.447917,28.6750,-92.0983,0032,25.0700
1987-07-19 23:15:00 UTC,2446996.468750,28.6750,-92.0983,0032,25.0900
1987-07-19 23:45:00 UTC,2446996.489583,28.6750,-92.0983,0032,24.9200
1987-07-20 00:15:00 UTC,2446996.510417,28.6750,-92.0983,0032,24.5600
1987-07-20 00:45:00 UTC,2446996.531250,28.6750,-92.0983,0032,25.0000
1987-07-20 01:15:00 UTC,2446996.552083,28.6750,-92.0983,0032,24.7100
1987-07-20 01:45:00 UTC,2446996.572917,28.6750,-92.0983,0032,24.6800
1987-07-20 02:15:00 UTC,2446996.593750,28.6750,-92.0983,0032,24.5000
1987-07-20 02:45:00 UTC,2446996.614583,28.6750,-92.0983,0032,24.1800
1987-07-20 03:15:00 UTC,2446996.635417,28.6750,-92.0983,0032,24.1000
1987-07-20 03:45:00 UTC,2446996.656250,28.6750,-92.0983,0032,24.1000
1987-07-20 04:15:00 UTC,2446996.677083,28.6750,-92.0983,0032,24.2800
1987-07-20 04:45:00 UTC,2446996.697917,28.6750,-92.0983,0032,24.0700
1987-07-20 05:15:00 UTC,2446996.718750,28.6750,-92.0983,0032,23.8500
1987-07-20 05:45:00 UTC,2446996.739583,28.6750,-92.0983,0032,24.2600
1987-07-20 06:15:00 UTC,2446996.760417,28.6750,-92.0983,0032,24.4000
1987-07-20 06:45:00 UTC,2446996.781250,28.6750,-92.0983,0032,24.4300
1987-07-20 07:15:00 UTC,2446996.802083,28.6750,-92.0983,0032,24.4000
1987-07-20 07:45:00 UTC,2446996.822917,28.6750,-92.0983,0032,24.2600
1987-07-20 08:15:00 UTC,2446996.843750,28.6750,-92.0983,0032,24.4300
1987-07-20 08:45:00 UTC,2446996.864583,28.6750,-92.0983,0032,24.6500
1987-07-20 09:15:00 UTC,2446996.885417,28.6750,-92.0983,0032,24.7300
1987-07-20 09:45:00 UTC,2446996.906250,28.6750,-92.0983,0032,24.7600
1987-07-20 10:15:00 UTC,2446996.927083,28.6750,-92.0983,0032,24.8700
1987-07-20 10:45:00 UTC,2446996.947917,28.6750,-92.0983,0032,24.9600
1987-07-20 11:15:00 UTC,2446996.968750,28.6750,-92.0983,0032,24.8400
1987-07-20 11:45:00 UTC,2446996.989583,28.6750,-92.0983,0032,24.8200
1987-07-20 12:15:00 UTC,2446997.010417,28.6750,-92.0983,0032,24.8400
1987-07-20 12:45:00 UTC,2446997.031250,28.6750,-92.0983,0032,24.9600
1987-07-20 13:15:00 UTC,2446997.052083,28.6750,-92.0983,0032,25.0100
1987-07-20 13:45:00 UTC,2446997.072917,28.6750,-92.0983,0032,25.0300
1987-07-20 14:15:00 UTC,2446997.093750,28.6750,-92.0983,0032,24.9500
1987-07-20 14:45:00 UTC,2446997.114583,28.6750,-92.0983,0032,25.0300
1987-07-20 15:15:00 UTC,2446997.135417,28.6750,-92.0983,0032,25.2100
1987-07-20 15:45:00 UTC,2446997.156250,28.6750,-92.0983,0032,25.3400
1987-07-20 16:15:00 UTC,2446997.177083,28.6750,-92.0983,0032,25.4200
1987-07-20 16:45:00 UTC,2446997.197917,28.6750,-92.0983,0032,25.5300
1987-07-20 17:15:00 UTC,2446997.218750,28.6750,-92.0983,0032,25.6000
1987-07-20 17:45:00 UTC,2446997.239583,28.6750,-92.0983,0032,25.6200
1987-07-20 18:15:00 UTC,2446997.260417,28.6750,-92.0983,0032,25.3900
1987-07-20 18:45:00 UTC,2446997.281250,28.6750,-92.0983,0032,25.2900
1987-07-20 19:15:00 UTC,2446997.302083,28.6750,-92.0983,0032,25.1700
1987-07-20 19:45:00 UTC,2446997.322917,28.6750,-92.0983,0032,25.2100
1987-07-20 20:15:00 UTC,2446997.343750,28.6750,-92.0983,0032,25.0400
1987-07-20 20:45:00 UTC,2446997.364583,28.6750,-92.0983,0032,25.2600
1987-07-20 21:15:00 UTC,2446997.385417,28.6750,-92.0983,0032,24.5700
1987-07-20 21:45:00 UTC,2446997.406250,28.6750,-92.0983,0032,24.0400
1987-07-20 22:15:00 UTC,2446997.427083,28.6750,-92.0983,0032,24.1400
1987-07-20 22:45:00 UTC,2446997.447917,28.6750,-92.0983,0032,24.2500
1987-07-20 23:15:00 UTC,2446997.468750,28.6750,-92.0983,0032,24.1800
1987-07-20 23:45:00 UTC,2446997.489583,28.6750,-92.0983,0032,24.5900
1987-07-21 00:15:00 UTC,2446997.510417,28.6750,-92.0983,0032,24.8900
1987-07-21 00:45:00 UTC,2446997.531250,28.6750,-92.0983,0032,24.8500
1987-07-21 01:15:00 UTC,2446997.552083,28.6750,-92.0983,0032,24.3700
1987-07-21 01:45:00 UTC,2446997.572917,28.6750,-92.0983,0032,23.9600
1987-07-21 02:15:00 UTC,2446997.593750,28.6750,-92.0983,0032,24.0300
1987-07-21 02:45:00 UTC,2446997.614583,28.6750,-92.0983,0032,23.8700
1987-07-21 03:15:00 UTC,2446997.635417,28.6750,-92.0983,0032,23.9200
1987-07-21 03:45:00 UTC,2446997.656250,28.6750,-92.0983,0032,24.4800
1987-07-21 04:15:00 UTC,2446997.677083,28.6750,-92.0983,0032,24.5400
1987-07-21 04:45:00 UTC,2446997.697917,28.6750,-92.0983,0032,24.3100
1987-07-21 05:15:00 UTC,2446997.718750,28.6750,-92.0983,0032,24.1700
1987-07-21 05:45:00 UTC,2446997.739583,28.6750,-92.0983,0032,24.2500
1987-07-21 06:15:00 UTC,2446997.760417,28.6750,-92.0983,0032,24.0600
1987-07-21 06:45:00 UTC,2446997.781250,28.6750,-92.0983,0032,24.1700
1987-07-21 07:15:00 UTC,2446997.802083,28.6750,-92.0983,0032,24.1500
1987-07-21 07:45:00 UTC,2446997.822917,28.6750,-92.0983,0032,24.6500
1987-07-21 08:15:00 UTC,2446997.843750,28.6750,-92.0983,0032,24.7000
1987-07-21 08:45:00 UTC,2446997.864583,28.6750,-92.0983,0032,24.5700
1987-07-21 09:15:00 UTC,2446997.885417,28.6750,-92.0983,0032,24.7100
1987-07-21 09:45:00 UTC,2446997.906250,28.6750,-92.0983,0032,24.6800
1987-07-21 10:15:00 UTC,2446997.927083,28.6750,-92.0983,0032,24.7100
1987-07-21 10:45:00 UTC,2446997.947917,28.6750,-92.0983,0032,24.6700
1987-07-21 11:15:00 UTC,2446997.968750,28.6750,-92.0983,0032,24.6400
1987-07-21 11:45:00 UTC,2446997.989583,28.6750,-92.0983,0032,24.8100
1987-07-21 12:15:00 UTC,2446998.010417,28.6750,-92.0983,0032,24.9000
1987-07-21 12:45:00 UTC,2446998.031250,28.6750,-92.0983,0032,25.0300
1987-07-21 13:15:00 UTC,2446998.052083,28.6750,-92.0983,0032,25.2000
1987-07-21 13:45:00 UTC,2446998.072917,28.6750,-92.0983,0032,25.2500
1987-07-21 14:15:00 UTC,2446998.093750,28.6750,-92.0983,0032,25.0900
1987-07-21 14:45:00 UTC,2446998.114583,28.6750,-92.0983,0032,25.0000
1987-07-21 15:15:00 UTC,2446998.135417,28.6750,-92.0983,0032,25.0900
1987-07-21 15:45:00 UTC,2446998.156250,28.6750,-92.0983,0032,24.9300
1987-07-21 16:15:00 UTC,2446998.177083,28.6750,-92.0983,0032,24.9000
1987-07-21 16:45:00 UTC,2446998.197917,28.6750,-92.0983,0032,25.1400
1987-07-21 17:15:00 UTC,2446998.218750,28.6750,-92.0983,0032,25.0400
1987-07-21 17:45:00 UTC,2446998.239583,28.6750,-92.0983,0032,25.0600
1987-07-21 18:15:00 UTC,2446998.260417,28.6750,-92.0983,0032,25.1700
1987-07-21 18:45:00 UTC,2446998.281250,28.6750,-92.0983,0032,25.1800
1987-07-21 19:15:00 UTC,2446998.302083,28.6750,-92.0983,0032,25.3500
1987-07-21 19:45:00 UTC,2446998.322917,28.6750,-92.0983,0032,25.3400
1987-07-21 20:15:00 UTC,2446998.343750,28.6750,-92.0983,0032,25.4200
1987-07-21 20:45:00 UTC,2446998.364583,28.6750,-92.0983,0032,25.6200
1987-07-21 21:15:00 UTC,2446998.385417,28.6750,-92.0983,0032,25.6200
1987-07-21 21:45:00 UTC,2446998.406250,28.6750,-92.0983,0032,25.7500
1987-07-21 22:15:00 UTC,2446998.427083,28.6750,-92.0983,0032,25.8500
1987-07-21 22:45:00 UTC,2446998.447917,28.6750,-92.0983,0032,25.6800
1987-07-21 23:15:00 UTC,2446998.468750,28.6750,-92.0983,0032,25.2800
1987-07-21 23:45:00 UTC,2446998.489583,28.6750,-92.0983,0032,25.2100
1987-07-22 00:15:00 UTC,2446998.510417,28.6750,-92.0983,0032,24.6800
1987-07-22 00:45:00 UTC,2446998.531250,28.6750,-92.0983,0032,24.1000
1987-07-22 01:15:00 UTC,2446998.552083,28.6750,-92.0983,0032,23.7800
1987-07-22 01:45:00 UTC,2446998.572917,28.6750,-92.0983,0032,23.6200
1987-07-22 02:15:00 UTC,2446998.593750,28.6750,-92.0983,0032,23.5400
1987-07-22 02:45:00 UTC,2446998.614583,28.6750,-92.0983,0032,23.6400
1987-07-22 03:15:00 UTC,2446998.635417,28.6750,-92.0983,0032,24.0400
1987-07-22 03:45:00 UTC,2446998.656250,28.6750,-92.0983,0032,24.1800
1987-07-22 04:15:00 UTC,2446998.677083,28.6750,-92.0983,0032,24.3900
1987-07-22 04:45:00 UTC,2446998.697917,28.6750,-92.0983,0032,24.1800
1987-07-22 05:15:00 UTC,2446998.718750,28.6750,-92.0983,0032,24.3200
1987-07-22 05:45:00 UTC,2446998.739583,28.6750,-92.0983,0032,24.2900
1987-07-22 06:15:00 UTC,2446998.760417,28.6750,-92.0983,0032,24.6400
1987-07-22 06:45:00 UTC,2446998.781250,28.6750,-92.0983,0032,24.0900
1987-07-22 07:15:00 UTC,2446998.802083,28.6750,-92.0983,0032,24.0900
1987-07-22 07:45:00 UTC,2446998.822917,28.6750,-92.0983,0032,24.3900
1987-07-22 08:15:00 UTC,2446998.843750,28.6750,-92.0983,0032,24.7800
1987-07-22 08:45:00 UTC,2446998.864583,28.6750,-92.0983,0032,24.9800
1987-07-22 09:15:00 UTC,2446998.885417,28.6750,-92.0983,0032,24.9200
1987-07-22 09:45:00 UTC,2446998.906250,28.6750,-92.0983,0032,24.8400
1987-07-22 10:15:00 UTC,2446998.927083,28.6750,-92.0983,0032,24.7600
1987-07-22 10:45:00 UTC,2446998.947917,28.6750,-92.0983,0032,24.7600
1987-07-22 11:15:00 UTC,2446998.968750,28.6750,-92.0983,0032,24.9800
1987-07-22 11:45:00 UTC,2446998.989583,28.6750,-92.0983,0032,25.2500
1987-07-22 12:15:00 UTC,2446999.010417,28.6750,-92.0983,0032,25.5100
1987-07-22 12:45:00 UTC,2446999.031250,28.6750,-92.0983,0032,25.1400
1987-07-22 13:15:00 UTC,2446999.052083,28.6750,-92.0983,0032,24.9600
1987-07-22 13:45:00 UTC,2446999.072917,28.6750,-92.0983,0032,25.1800
1987-07-22 14:15:00 UTC,2446999.093750,28.6750,-92.0983,0032,24.7100
1987-07-22 14:45:00 UTC,2446999.114583,28.6750,-92.0983,0032,24.6700
1987-07-22 15:15:00 UTC,2446999.135417,28.6750,-92.0983,0032,24.9800
1987-07-22 15:45:00 UTC,2446999.156250,28.6750,-92.0983,0032,25.1000
1987-07-22 16:15:00 UTC,2446999.177083,28.6750,-92.0983,0032,24.9500
1987-07-22 16:45:00 UTC,2446999.197917,28.6750,-92.0983,0032,24.6700
1987-07-22 17:15:00 UTC,2446999.218750,28.6750,-92.0983,0032,24.2800
1987-07-22 17:45:00 UTC,2446999.239583,28.6750,-92.0983,0032,23.8200
1987-07-22 18:15:00 UTC,2446999.260417,28.6750,-92.0983,0032,24.2100
1987-07-22 18:45:00 UTC,2446999.281250,28.6750,-92.0983,0032,24.3500
1987-07-22 19:15:00 UTC,2446999.302083,28.6750,-92.0983,0032,24.4200
1987-07-22 19:45:00 UTC,2446999.322917,28.6750,-92.0983,0032,24.4800
1987-07-22 20:15:00 UTC,2446999.343750,28.6750,-92.0983,0032,24.6400
1987-07-22 20:45:00 UTC,2446999.364583,28.6750,-92.0983,0032,24.9000
1987-07-22 21:15:00 UTC,2446999.385417,28.6750,-92.0983,0032,25.1200
1987-07-22 21:45:00 UTC,2446999.406250,28.6750,-92.0983,0032,24.6200
1987-07-22 22:15:00 UTC,2446999.427083,28.6750,-92.0983,0032,24.4200
1987-07-22 22:45:00 UTC,2446999.447917,28.6750,-92.0983,0032,24.4500
1987-07-22 23:15:00 UTC,2446999.468750,28.6750,-92.0983,0032,24.4600
1987-07-22 23:45:00 UTC,2446999.489583,28.6750,-92.0983,0032,24.3100
1987-07-23 00:15:00 UTC,2446999.510417,28.6750,-92.0983,0032,24.1400
1987-07-23 00:45:00 UTC,2446999.531250,28.6750,-92.0983,0032,24.2900
1987-07-23 01:15:00 UTC,2446999.552083,28.6750,-92.0983,0032,24.3100
1987-07-23 01:45:00 UTC,2446999.572917,28.6750,-92.0983,0032,24.2600
1987-07-23 02:15:00 UTC,2446999.593750,28.6750,-92.0983,0032,24.2600
1987-07-23 02:45:00 UTC,2446999.614583,28.6750,-92.0983,0032,24.2800
1987-07-23 03:15:00 UTC,2446999.635417,28.6750,-92.0983,0032,24.2000
1987-07-23 03:45:00 UTC,2446999.656250,28.6750,-92.0983,0032,24.0000
1987-07-23 04:15:00 UTC,2446999.677083,28.6750,-92.0983,0032,24.3900
1987-07-23 04:45:00 UTC,2446999.697917,28.6750,-92.0983,0032,24.1400
1987-07-23 05:15:00 UTC,2446999.718750,28.6750,-92.0983,0032,24.3100
1987-07-23 05:45:00 UTC,2446999.739583,28.6750,-92.0983,0032,24.3700
1987-07-23 06:15:00 UTC,2446999.760417,28.6750,-92.0983,0032,24.1700
1987-07-23 06:45:00 UTC,2446999.781250,28.6750,-92.0983,0032,23.9600
1987-07-23 07:15:00 UTC,2446999.802083,28.6750,-92.0983,0032,23.4200
1987-07-23 07:45:00 UTC,2446999.822917,28.6750,-92.0983,0032,23.2100
1987-07-23 08:15:00 UTC,2446999.843750,28.6750,-92.0983,0032,23.1800
1987-07-23 08:45:00 UTC,2446999.864583,28.6750,-92.0983,0032,23.2300
1987-07-23 09:15:00 UTC,2446999.885417,28.6750,-92.0983,0032,23.7600
1987-07-23 09:45:00 UTC,2446999.906250,28.6750,-92.0983,0032,23.8500
1987-07-23 10:15:00 UTC,2446999.927083,28.6750,-92.0983,0032,24.3200
1987-07-23 10:45:00 UTC,2446999.947917,28.6750,-92.0983,0032,24.7000